Location: Rancho Del Sol Observatory
(38.7214°N, 120.6350°W)
Time: 10:03:13
(UTC-08:00)

A-11 Canister half - Pass Details

Date: 28 January 2020
Orbit: 1517 x 1683 km, 47.2° (Epoch: 22 February)

Event Time Altitude Azimuth Distance (km) Brightness Sun altitude
Rises 07:50:08 0° 283° (WNW) 4,667 10.9 5.9°
Reaches altitude 10° 07:57:18 10° 246° (WSW) 3,703 10.7 7.1°
Maximum altitude 07:58:29 10° 239° (WSW) 3,685 10.8 7.3°
Drops below altitude 10° 07:59:42 10° 231° (SW) 3,713 10.8 7.5°
Sets 08:07:02 0° 194° (SSW) 4,736 11.8 8.7°
